O3B FM5

Last updated on Thu Sep 10 2026 00:03:17 GMT+0000 (Coordinated Universal Time)

1 39188U 13031A 26252.39377186 -.00000028 00000+0 00000+0 0 9997 2 39188 0.0836 319.2621 0002505 194.9562 205.7931 5.00115639241251
UTC large
Height (km)
Speed (km/s)
/
Latitude / Longitude
Inclination (degrees)
Orbital Period (minutes)
Azimuth
Elevation
Range (km)
Doppler Factor

Next 0 passes for location: London (51.5072 / 0.1276)

No passes found over London.
O3B FM5